Location: Alfortville
(48.8058°N, 2.4204°E)
Time: 03:45:41
(UTC+00:00)

Cosmos 1980 Rocket - Pass Details

Date: 30 May 2022
Orbit: 827 x 851 km, 71.0° (Epoch: 05 July)

Event Time Altitude Azimuth Distance (km) Brightness Sun altitude
Rises 22:50:16 0° 279° (W) 3,398 5.7 -18.2°
Reaches altitude 10° 22:54:29 10° 309° (NW) 2,472 5.4 -18.3°
Maximum altitude 22:56:41 12° 332° (NNW) 2,322 5.6 -18.4°
Drops below altitude 10° 22:58:54 10° 356° (N) 2,481 5.9 -18.5°
Sets 23:03:10 0° 26° (NNE) 3,425 6.2 -18.6°
